Temp
75 77 77 77 76 76 76 75 75 74 75 74 74 74 73 73 74 74 75 74 73 77 77 77 77 79 74 77 73 73 74 74 73 73 73 73 72 73 73 72 72 71 70 69 69 69 70 70 71 71 71 72 73 78 80 79 79 79 80 80 79 81
75 77 77 76 77 77 75 76 77 76 77 76 75 75 76 78 76 78 74 75 77 77 78 78 78 76 77 76 76 73 74 74 73 73 73 72 72 72 72 72 71 70 69 68 68 76 75 72 71 70 71 70 77 80 79 79 78 80 79 80 79 76
76 77 78 79 78 77 76 76 76 76 77 76 77 77 78 78 79 79 79 79 76 77 78 78 77 77 77 74 75 74 73 73 74 73 73 72 72 72 72 72 71 70 68 67 76 77 77 78 78 72 73 77 79 79 79 78 78 79 79 79 80 72
77 77 77 77 77 76 75 75 75 76 77 76 77 77 79 79 79 78 78 77 76 76 76 75 75 74 75 75 74 73 73 73 73 73 73 74 73 73 72 70 70 69 71 76 78 78 78 78 78 78 78 79 79 78 78 78 80 79 80 79 81 70
76 76 77 75 77 76 76 74 75 76 77 77 77 77 78 77 77 77 76 75 77 75 75 76 76 76 75 74 75 76 75 76 77 77 73 77 77 77 76 76 75 74 76 76 77 76 77 77 77 77 78 78 79 78 78 78 79 79 79 79 78 70
75 76 75 75 77 76 75 74 74 75 75 76 76 76 75 74 74 75 75 76 75 74 74 75 75 74 74 74 74 75 74 75 77 76 76 77 77 77 77 76 75 76 76 75 76 76 77 77 77 77 78 78 78 78 79 80 80 78 79 79 77 70
76 76 77 77 78 76 75 75 77 75 76 75 74 74 73 73 74 74 75 75 75 73 73 74 74 73 72 73 73 73 72 74 76 76 75 77 75 76 77 76 75 75 75 75 77 78 77 77 77 77 78 79 79 80 79 80 80 79 79 78 76 70
77 78 77 79 78 76 76 76 74 75 76 74 74 75 74 73 73 73 74 74 74 75 74 74 74 73 72 73 73 74 74 74 76 76 75 75 75 76 77 77 75 76 76 77 78 78 78 79 77 76 73 76 79 79 79 80 79 77 78 78 78 73
77 77 77 78 78 76 75 77 75 76 75 74 74 74 74 73 72 72 73 75 75 73 74 73 72 72 71 72 73 73 72 74 75 76 76 75 76 75 75 76 76 76 76 76 77 77 78 78 77 76 75 74 79 79 79 78 77 77 77 77 78 75
77 77 77 78 76 75 74 74 76 75 76 76 75 74 74 73 72 72 73 74 73 74 73 72 72 71 70 71 72 73 73 76 75 75 75 74 75 76 76 76 76 76 76 75 75 76 77 78 78 77 77 79 77 78 77 78 77 77 78 78 77 76
77 75 77 78 76 75 75 75 77 77 77 76 75 74 72 72 72 72 70 66 65 67 69 69 66 66 67 71 71 72 75 75 75 75 75 75 75 76 76 76 77 76 75 74 72 74 76 75 76 78 75 77 75 71 73 74 76 77 78 77 78 76
74 74 74 77 76 75 75 76 75 76 76 77 74 72 72 71 71 70 66 65 65 67 67 65 64 63 64 64 67 70 72 73 74 76 76 76 76 76 76 76 75 74 74 74 73 73 72 72 74 76 76 75 74 73 71 74 72 72 71 74 76 77
74 73 74 75 75 75 75 76 76 74 75 74 73 73 72 72 71 67 67 68 68 67 66 67 66 66 65 64 64 66 71 73 74 74 75 76 76 75 75 75 74 75 75 75 74 73 73 71 69 71 73 73 74 75 76 76 75 74 72 68 67 72
73 73 73 75 74 75 74 75 76 74 73 73 72 71 71 72 71 69 69 70 68 67 68 69 68 65 65 65 65 64 68 73 74 73 73 73 73 75 75 75 75 76 74 75 75 73 72 70 71 71 72 74 72 71 74 77 76 77 76 75 71 67
72 73 74 74 73 74 73 74 73 73 72 71 71 70 71 70 69 68 68 69 69 69 70 69 69 67 65 64 64 65 66 73 74 74 73 73 74 75 75 74 75 74 73 72 73 71 72 72 72 71 70 71 72 72 72 74 75 76 77 76 75 74
71 72 73 73 73 73 72 72 72 72 71 71 71 72 71 71 71 70 70 69 71 71 70 69 68 67 66 66 66 65 66 71 71 74 74 73 74 75 74 74 74 74 71 71 71 69 71 71 70 70 70 70 71 72 72 73 74 77 76 76 76 74
70 71 72 72 72 72 71 71 72 72 72 71 73 74 74 71 69 69 69 70 70 71 71 70 68 68 68 67 66 67 67 71 71 72 73 73 75 75 74 73 72 72 72 69 72 72 71 71 70 69 69 70 70 71 70 71 74 73 76 75 75 76
71 72 72 71 71 71 72 72 73 73 72 73 72 74 73 73 71 69 69 68 69 71 71 71 71 70 67 70 70 69 69 70 71 72 72 73 74 74 75 73 69 68 69 70 70 71 70 71 72 71 69 69 69 70 70 70 70 70 73 73 72 72
70 71 70 70 70 70 71 71 73 72 72 71 72 72 73 73 70 70 68 69 70 70 70 70 70 72 71 72 70 70 69 70 71 72 72 74 73 72 72 72 69 66 68 70 70 70 70 72 72 71 71 68 69 69 70 70 70 71 72 71 71 70
69 70 70 70 71 72 72 72 71 71 72 71 71 71 72 73 72 73 71 69 69 69 69 70 70 71 71 69 68 69 69 71 72 73 72 72 72 72 71 70 70 68 68 69 72 72 71 70 70 70 67 67 68 70 71 70 70 71 71 71 71 70
69 69 70 71 72 72 72 71 71 72 72 71 71 71 71 71 72 72 71 71 70 70 70 70 71 72 70 69 68 68 69 70 72 73 72 71 71 71 71 70 68 69 67 66 67 69 70 70 69 67 69 68 67 68 70 69 69 69 68 66 66 66
69 69 71 71 72 72 72 74 73 73 73 72 72 73 71 71 70 70 70 70 70 71 70 70 71 71 70 70 68 69 70 71 71 72 71 71 71 70 69 69 69 66 67 67 66 67 67 69 67 66 63 64 67 67 67 68 71 70 68 66 65 65
69 70 71 71 72 72 71 71 73 71 73 71 71 72 74 71 71 71 69 72 72 71 71 72 71 70 70 70 70 69 68 69 70 69 68 69 70 69 70 69 69 67 65 67 66 67 67 69 67 67 67 66 63 64 65 68 69 68 68 66 66 67
69 70 70 71 71 71 70 69 69 69 70 72 70 69 69 70 70 71 70 70 72 73 73 73 72 72 71 70 69 69 69 70 70 71 70 68 68 68 68 69 69 69 68 63 65 65 68 68 69 67 63 64 62 64 62 63 65 67 68 67 67 66
70 70 70 70 70 69 69 68 68 68 70 68 69 70 71 71 71 71 70 70 69 71 71 72 72 72 72 69 69 69 69 69 69 68 71 69 67 68 71 71 70 68 68 68 66 65 65 67 67 69 67 62 61 62 63 63 65 64 68 68 69 69
70 70 69 70 69 70 70 69 69 69 68 69 69 69 70 69 70 71 72 68 70 70 71 70 72 71 70 68 68 68 69 69 68 68 70 70 70 68 68 70 71 71 70 70 69 66 64 66 67 67 68 68 68 65 62 63 63 57 65 67 69 71
70 69 69 69 69 70 69 70 70 71 71 70 69 67 67 67 68 67 68 68 69 68 70 71 70 72 70 69 68 68 68 69 70 70 70 70 70 69 71 72 72 71 72 70 69 66 65 65 66 66 66 66 66 67 68 64 62 62 60 65 67 66
70 69 69 69 69 70 70 70 70 69 70 70 70 67 67 66 66 68 68 67 69 69 69 70 70 71 72 71 69 68 69 69 70 70 71 72 71 71 71 71 70 71 71 71 70 68 66 67 67 64 64 64 64 66 66 66 70 68 66 61 61 66
69 69 68 68 69 70 71 70 70 69 67 68 68 67 68 68 67 67 66 67 68 69 68 67 69 69 70 71 71 70 69 68 69 70 73 73 71 71 70 69 68 69 69 70 70 69 67 67 69 65 64 64 67 67 67 67 67 69 67 63 62 62
68 69 68 68 69 69 70 70 69 69 67 67 67 67 68 67 67 68 67 66 67 68 69 68 68 68 69 70 70 70 71 71 70 71 72 72 71 70 69 69 69 69 69 69 70 70 68 68 69 68 68 67 66 66 67 68 68 68 68 68 63 63
68 68 67 68 68 68 69 70 70 69 68 67 67 67 67 66 67 68 68 67 67 67 68 68 68 67 67 69 68 69 69 70 70 70 69 70 70 71 69 69 68 68 68 68 69 68 68 68 69 68 69 70 69 69 68 67 67 68 68 65 64 63
66 67 67 68 68 68 69 69 69 69 68 68 68 68 68 67 68 68 67 67 67 68 67 67 67 68 67 67 68 68 68 68 68 68 68 69 68 69 68 68 68 68 67 67 68 68 67 66 67 68 68 69 70 70 70 70 70 69 69 67 66 64
61 64 67 67 67 68 68 68 68 69 68 68 68 69 69 67 67 68 67 67 68 68 68 68 68 68 66 66 68 68 68 68 68 67 67 68 67 67 68 68 68 67 67 67 68 68 67 66 67 68 67 68 71 71 69 69 69 69 68 68 68 65
61 62 64 66 67 66 66 66 67 68 67 68 68 68 68 68 67 68 68 68 68 69 69 68 68 67 66 67 68 67 67 66 66 66 66 66 66 67 67 70 68 67 66 66 66 66 66 65 66 66 67 68 68 68 67 68 68 68 67 67 67 65
60 61 62 64 65 64 64 64 65 66 66 67 67 67 67 67 66 66 65 66 67 68 69 68 68 66 66 66 66 66 66 66 65 65 66 66 66 66 66 68 68 65 65 66 66 66 66 65 64 65 66 67 66 67 67 68 69 69 70 69 68 67
59 59 61 63 64 64 63 64 64 64 65 65 66 65 65 64 64 64 62 65 66 66 67 67 66 66 65 66 66 66 66 65 65 65 65 66 66 67 66 67 67 66 64 66 65 65 66 66 64 64 65 66 67 67 67 68 70 69 70 69 68 68
59 59 59 62 62 65 64 63 62 62 64 64 64 64 62 62 61 61 61 63 65 65 65 66 66 66 65 65 65 66 66 65 64 65 65 65 65 66 66 67 67 66 65 66 67 66 66 66 65 65 66 66 67 67 67 67 68 68 67 68 69 69
MSLP
1016.24 1016.12 1016.16 1016.32 1016.60 1016.76 1016.92 1017.12 1017.32 1017.40 1017.36 1017.44 1017.60 1017.80 1018.00 1018.16 1018.36 1018.52 1018.60 1018.72 1018.80 1018.80 1018.88 1018.96 1019.08 1019.04 1019.28 1019.32 1019.48 1019.56 1019.64 1019.76 1019.84 1019.92 1020.00 1020.04 1020.12 1020.24 1020.40 1020.56 1020.68 1020.80 1020.88 1020.88 1020.84 1020.80 1020.80 1020.76 1020.68 1020.64 1020.56 1020.52 1020.56 1020.48 1020.40 1020.56 1020.64 1020.72 1020.72 1020.80 1020.96 1020.88
1016.20 1016.04 1016.12 1016.36 1016.60 1016.84 1017.24 1017.20 1017.28 1017.36 1017.40 1017.48 1017.60 1017.76 1017.92 1018.00 1018.24 1018.36 1018.64 1018.72 1018.72 1018.84 1018.88 1018.96 1019.04 1019.16 1019.24 1019.40 1019.52 1019.64 1019.72 1019.80 1019.88 1020.00 1020.04 1020.12 1020.16 1020.32 1020.48 1020.60 1020.72 1020.84 1020.88 1020.88 1020.84 1020.64 1020.64 1020.68 1020.72 1020.72 1020.68 1020.68 1020.48 1020.36 1020.52 1020.64 1020.80 1020.80 1020.92 1020.92 1021.00 1021.20
1015.88 1015.92 1016.00 1016.24 1016.40 1016.72 1017.12 1017.24 1017.40 1017.44 1017.48 1017.52 1017.56 1017.68 1017.76 1017.96 1018.12 1018.28 1018.44 1018.56 1018.68 1018.80 1018.88 1018.96 1019.08 1019.20 1019.28 1019.48 1019.60 1019.72 1019.76 1019.84 1019.88 1019.96 1020.04 1020.12 1020.24 1020.40 1020.52 1020.60 1020.72 1020.84 1020.88 1020.84 1020.64 1020.64 1020.60 1020.52 1020.52 1020.64 1020.64 1020.56 1020.44 1020.44 1020.56 1020.76 1020.88 1020.92 1021.00 1021.04 1021.08 1021.48
1015.80 1015.88 1016.04 1016.20 1016.36 1016.68 1017.08 1017.32 1017.52 1017.52 1017.52 1017.64 1017.64 1017.72 1017.76 1017.92 1018.12 1018.32 1018.48 1018.56 1018.72 1018.80 1018.92 1019.08 1019.20 1019.28 1019.40 1019.56 1019.68 1019.80 1019.88 1019.84 1019.88 1019.92 1020.00 1020.04 1020.20 1020.36 1020.56 1020.72 1020.80 1020.88 1020.76 1020.60 1020.56 1020.56 1020.56 1020.60 1020.52 1020.44 1020.48 1020.48 1020.44 1020.60 1020.68 1020.76 1020.84 1020.96 1021.00 1021.24 1021.16 1021.68
1016.08 1016.12 1016.24 1016.36 1016.44 1016.68 1016.96 1017.36 1017.56 1017.56 1017.56 1017.60 1017.68 1017.72 1017.84 1018.00 1018.16 1018.36 1018.48 1018.60 1018.68 1018.84 1019.04 1019.08 1019.16 1019.28 1019.44 1019.60 1019.64 1019.64 1019.72 1019.68 1019.60 1019.76 1019.92 1019.96 1020.04 1020.20 1020.32 1020.48 1020.64 1020.72 1020.64 1020.68 1020.68 1020.72 1020.68 1020.72 1020.72 1020.64 1020.60 1020.56 1020.56 1020.64 1020.72 1020.76 1020.88 1020.96 1021.08 1021.20 1021.36 1021.76
1016.40 1016.32 1016.44 1016.48 1016.56 1016.76 1017.04 1017.36 1017.64 1017.52 1017.56 1017.72 1017.80 1017.88 1018.00 1018.20 1018.32 1018.40 1018.48 1018.52 1018.68 1018.96 1019.12 1019.16 1019.24 1019.32 1019.40 1019.48 1019.56 1019.52 1019.60 1019.56 1019.60 1019.72 1019.80 1019.92 1020.00 1020.12 1020.24 1020.40 1020.60 1020.68 1020.72 1020.72 1020.72 1020.72 1020.76 1020.76 1020.80 1020.80 1020.72 1020.68 1020.64 1020.72 1020.68 1020.72 1020.84 1021.04 1021.12 1021.24 1021.52 1021.88
1016.48 1016.48 1016.52 1016.52 1016.56 1016.88 1017.16 1017.28 1017.32 1017.48 1017.60 1017.84 1017.92 1018.08 1018.20 1018.24 1018.36 1018.40 1018.44 1018.52 1018.76 1019.00 1019.16 1019.16 1019.24 1019.28 1019.40 1019.36 1019.52 1019.52 1019.60 1019.52 1019.56 1019.68 1019.80 1019.84 1020.08 1020.16 1020.20 1020.36 1020.52 1020.64 1020.72 1020.72 1020.68 1020.68 1020.72 1020.76 1020.80 1020.88 1020.84 1020.72 1020.68 1020.72 1020.76 1020.80 1020.88 1021.08 1021.20 1021.32 1021.56 1021.96
1016.56 1016.48 1016.60 1016.60 1016.72 1017.00 1017.12 1017.28 1017.44 1017.52 1017.60 1017.76 1017.92 1018.04 1018.12 1018.20 1018.32 1018.40 1018.44 1018.60 1018.72 1018.88 1019.00 1019.12 1019.20 1019.32 1019.36 1019.32 1019.36 1019.32 1019.40 1019.48 1019.44 1019.60 1019.72 1019.80 1020.04 1020.12 1020.16 1020.24 1020.40 1020.56 1020.64 1020.64 1020.68 1020.68 1020.64 1020.72 1020.84 1021.00 1021.36 1021.04 1020.84 1020.76 1020.84 1020.84 1021.00 1021.24 1021.32 1021.44 1021.56 1021.96
1016.56 1016.56 1016.56 1016.60 1016.84 1017.08 1017.24 1017.28 1017.44 1017.52 1017.68 1017.76 1017.88 1017.96 1018.04 1018.20 1018.40 1018.44 1018.52 1018.64 1018.76 1019.00 1018.96 1019.08 1019.28 1019.40 1019.44 1019.44 1019.40 1019.36 1019.36 1019.36 1019.40 1019.44 1019.56 1019.76 1019.84 1020.04 1020.16 1020.20 1020.36 1020.44 1020.60 1020.68 1020.64 1020.72 1020.68 1020.76 1020.84 1020.96 1021.12 1021.40 1020.84 1020.88 1020.96 1021.08 1021.24 1021.40 1021.48 1021.56 1021.64 1021.88
1016.56 1016.52 1016.60 1016.72 1017.04 1017.28 1017.40 1017.56 1017.52 1017.56 1017.56 1017.64 1017.88 1018.00 1018.12 1018.32 1018.40 1018.56 1018.68 1018.84 1018.96 1018.88 1018.96 1019.16 1019.36 1019.60 1019.68 1019.72 1019.56 1019.44 1019.36 1019.20 1019.28 1019.44 1019.56 1019.80 1019.80 1019.88 1020.04 1020.12 1020.28 1020.48 1020.64 1020.80 1020.76 1020.76 1020.72 1020.80 1020.88 1020.92 1020.88 1020.84 1021.08 1021.12 1021.24 1021.28 1021.36 1021.36 1021.36 1021.56 1021.72 1021.88
1016.56 1016.56 1016.68 1016.88 1017.08 1017.28 1017.36 1017.52 1017.48 1017.48 1017.60 1017.68 1017.80 1018.04 1018.24 1018.32 1018.48 1018.64 1019.08 1019.24 1019.04 1019.08 1019.24 1019.44 1019.96 1020.52 1020.64 1020.12 1019.92 1019.68 1019.40 1019.24 1019.24 1019.28 1019.40 1019.64 1019.68 1019.80 1019.92 1020.04 1020.16 1020.40 1020.68 1020.92 1021.04 1020.92 1020.84 1021.00 1020.92 1020.88 1021.04 1021.08 1021.16 1021.32 1021.60 1021.60 1021.52 1021.36 1021.44 1021.68 1021.80 1021.96
1016.72 1016.80 1016.96 1016.96 1017.12 1017.28 1017.44 1017.44 1017.52 1017.52 1017.64 1017.64 1017.88 1018.12 1018.20 1018.36 1018.52 1018.88 1019.04 1018.88 1019.24 1019.40 1019.44 1019.76 1019.92 1020.24 1020.48 1020.84 1020.80 1020.08 1019.52 1019.40 1019.28 1019.16 1019.20 1019.40 1019.64 1019.76 1019.88 1020.00 1020.20 1020.44 1020.68 1020.80 1020.96 1021.00 1021.00 1021.04 1021.08 1021.08 1021.08 1021.28 1021.36 1021.60 1021.92 1021.64 1021.56 1021.60 1022.08 1022.20 1022.16 1021.96
1016.68 1016.88 1017.00 1017.04 1017.08 1017.16 1017.28 1017.36 1017.44 1017.64 1017.68 1017.72 1017.88 1018.04 1018.20 1018.32 1018.52 1018.92 1018.88 1019.00 1019.16 1019.32 1019.48 1019.60 1019.80 1020.00 1020.36 1020.64 1021.12 1021.00 1019.80 1019.52 1019.28 1019.20 1019.20 1019.32 1019.52 1019.80 1019.96 1020.12 1020.32 1020.44 1020.64 1020.72 1020.80 1020.96 1020.92 1021.08 1021.28 1021.36 1021.28 1021.44 1021.48 1021.52 1021.52 1021.52 1021.40 1021.52 1022.08 1022.48 1022.44 1022.20
1016.72 1016.88 1017.00 1016.92 1016.96 1017.08 1017.24 1017.28 1017.28 1017.48 1017.64 1017.72 1017.84 1018.04 1018.16 1018.20 1018.44 1018.72 1018.76 1018.84 1019.20 1019.52 1019.44 1019.32 1019.52 1019.84 1020.08 1020.12 1020.32 1021.00 1020.40 1019.64 1019.40 1019.28 1019.32 1019.48 1019.68 1019.76 1020.04 1020.20 1020.36 1020.44 1020.64 1020.52 1020.64 1020.88 1021.12 1021.44 1021.48 1021.44 1021.48 1021.44 1021.52 1021.72 1021.60 1021.52 1021.52 1021.48 1021.68 1021.96 1022.16 1022.24
1016.76 1016.84 1016.88 1016.88 1017.00 1017.08 1017.16 1017.24 1017.36 1017.52 1017.60 1017.76 1017.88 1018.08 1018.16 1018.32 1018.52 1018.68 1018.80 1018.68 1018.76 1018.92 1019.04 1019.04 1019.24 1019.48 1019.72 1019.84 1020.32 1020.88 1020.88 1019.80 1019.40 1019.24 1019.40 1019.52 1019.60 1019.76 1020.00 1020.28 1020.44 1020.68 1020.68 1020.60 1020.92 1021.40 1021.36 1021.40 1021.44 1021.56 1021.68 1021.68 1021.80 1021.76 1021.76 1021.80 1021.76 1021.72 1021.72 1021.88 1021.84 1021.92
1016.84 1016.88 1016.84 1016.84 1016.92 1017.04 1017.16 1017.20 1017.32 1017.48 1017.64 1017.76 1017.96 1018.08 1018.20 1018.28 1018.40 1018.52 1018.56 1018.56 1018.52 1018.64 1018.84 1018.96 1019.00 1019.20 1019.52 1019.76 1020.08 1020.36 1020.52 1019.96 1019.60 1019.28 1019.32 1019.56 1019.64 1019.84 1020.08 1020.36 1020.56 1020.72 1020.96 1021.00 1021.32 1021.60 1021.48 1021.64 1021.68 1021.76 1021.76 1021.80 1021.88 1021.92 1022.04 1022.04 1022.00 1021.88 1021.92 1021.92 1021.96 1022.04
1016.92 1016.84 1016.84 1016.80 1016.88 1017.04 1017.16 1017.24 1017.28 1017.48 1017.64 1017.84 1017.92 1017.96 1018.08 1018.32 1018.48 1018.56 1018.52 1018.48 1018.44 1018.48 1018.64 1018.84 1019.04 1019.20 1019.48 1019.76 1019.88 1020.04 1020.60 1019.96 1019.52 1019.36 1019.40 1019.56 1019.72 1019.84 1020.16 1020.52 1020.88 1021.08 1020.96 1021.08 1021.12 1021.40 1021.60 1021.72 1021.88 1021.96 1021.92 1022.00 1022.08 1022.20 1022.36 1022.24 1022.12 1022.16 1022.08 1022.12 1022.12 1022.08
1017.00 1016.68 1016.72 1016.80 1016.96 1017.12 1017.16 1017.16 1017.28 1017.44 1017.64 1017.80 1017.92 1017.92 1018.04 1018.12 1018.32 1018.48 1018.48 1018.48 1018.44 1018.44 1018.60 1018.80 1018.88 1019.16 1019.56 1019.48 1019.72 1020.00 1020.08 1019.68 1019.44 1019.36 1019.44 1019.56 1019.72 1019.92 1020.12 1020.48 1021.20 1021.52 1021.12 1021.04 1021.24 1021.44 1021.60 1021.68 1021.80 1022.00 1022.16 1022.24 1022.32 1022.28 1022.32 1022.24 1022.32 1022.32 1022.28 1022.28 1022.32 1022.32
1017.00 1016.76 1016.72 1016.80 1016.96 1017.12 1017.20 1017.28 1017.40 1017.56 1017.72 1017.88 1017.96 1018.08 1018.04 1018.12 1018.32 1018.36 1018.44 1018.44 1018.36 1018.40 1018.56 1018.76 1018.88 1019.00 1019.16 1019.28 1019.60 1019.60 1019.56 1019.52 1019.36 1019.36 1019.48 1019.60 1019.84 1020.04 1020.32 1020.56 1021.16 1021.80 1021.40 1021.16 1021.36 1021.44 1021.56 1021.60 1021.80 1022.00 1022.16 1022.44 1022.40 1022.40 1022.32 1022.28 1022.28 1022.28 1022.28 1022.28 1022.32 1022.44
1016.72 1016.64 1016.64 1016.80 1016.92 1017.08 1017.20 1017.40 1017.68 1017.72 1017.84 1017.96 1018.04 1018.16 1018.20 1018.20 1018.24 1018.20 1018.32 1018.44 1018.40 1018.44 1018.52 1018.64 1018.80 1018.88 1019.00 1019.28 1019.44 1019.48 1019.52 1019.40 1019.32 1019.36 1019.60 1019.76 1019.96 1020.12 1020.40 1020.72 1021.04 1021.48 1021.68 1021.48 1021.32 1021.44 1021.60 1021.76 1021.96 1022.16 1022.40 1022.52 1022.44 1022.32 1022.36 1022.40 1022.36 1022.36 1022.32 1022.32 1022.32 1022.40
1016.44 1016.56 1016.56 1016.72 1016.80 1016.96 1017.28 1017.60 1017.64 1017.68 1017.80 1017.96 1018.12 1018.20 1018.32 1018.28 1018.24 1018.24 1018.32 1018.32 1018.44 1018.48 1018.52 1018.60 1018.64 1018.76 1019.04 1019.20 1019.40 1019.52 1019.56 1019.48 1019.40 1019.44 1019.64 1019.88 1020.04 1020.20 1020.36 1020.64 1021.04 1021.20 1021.56 1021.88 1021.96 1021.84 1021.88 1021.80 1022.12 1022.48 1022.40 1022.52 1022.68 1022.60 1022.52 1022.56 1022.60 1022.56 1022.64 1022.80 1022.80 1022.76
1016.24 1016.40 1016.32 1016.40 1016.52 1016.80 1016.92 1017.04 1017.28 1017.48 1017.60 1017.88 1018.04 1018.12 1018.32 1018.32 1018.36 1018.36 1018.36 1018.40 1018.40 1018.52 1018.64 1018.64 1018.68 1018.80 1018.96 1019.16 1019.44 1019.52 1019.56 1019.56 1019.60 1019.68 1019.88 1020.04 1020.20 1020.40 1020.64 1020.84 1021.00 1021.44 1021.48 1021.64 1021.96 1021.96 1022.08 1022.00 1022.32 1022.44 1022.84 1022.96 1022.72 1022.76 1022.72 1022.76 1022.60 1022.68 1022.80 1022.92 1022.96 1022.96
1015.96 1016.12 1016.24 1016.32 1016.48 1016.72 1016.92 1017.12 1017.16 1017.48 1017.56 1018.00 1018.08 1018.08 1018.08 1018.32 1018.36 1018.44 1018.52 1018.44 1018.44 1018.52 1018.68 1018.76 1018.84 1018.92 1019.08 1019.20 1019.32 1019.48 1019.64 1019.68 1019.80 1019.92 1020.12 1020.24 1020.36 1020.56 1020.64 1020.80 1020.88 1021.24 1021.76 1021.72 1021.92 1021.88 1022.04 1021.96 1022.28 1022.24 1022.24 1022.52 1022.96 1023.00 1022.96 1022.72 1022.72 1022.88 1022.88 1022.92 1022.92 1022.92
1015.80 1015.92 1016.12 1016.36 1016.48 1016.68 1016.96 1017.20 1017.36 1017.56 1017.80 1017.88 1018.28 1018.48 1018.44 1018.44 1018.48 1018.48 1018.64 1018.68 1018.60 1018.56 1018.64 1018.76 1018.92 1019.04 1019.16 1019.28 1019.40 1019.56 1019.68 1019.72 1019.80 1019.88 1020.12 1020.48 1020.64 1020.80 1020.84 1020.84 1020.92 1021.08 1021.36 1022.12 1022.08 1022.12 1021.96 1021.92 1021.92 1022.16 1022.72 1022.68 1022.96 1022.72 1023.16 1023.24 1023.12 1023.16 1022.96 1023.00 1023.04 1023.16
1015.56 1015.72 1016.00 1016.28 1016.56 1016.80 1017.08 1017.40 1017.64 1017.92 1018.00 1018.28 1018.36 1018.40 1018.40 1018.52 1018.48 1018.48 1018.60 1018.76 1018.92 1018.84 1018.80 1018.88 1019.00 1019.12 1019.24 1019.40 1019.48 1019.60 1019.72 1019.84 1019.96 1020.12 1020.12 1020.36 1020.68 1020.76 1020.68 1020.72 1020.84 1021.08 1021.24 1021.52 1022.00 1022.12 1022.28 1022.08 1022.08 1021.88 1022.04 1022.92 1023.32 1023.08 1022.92 1023.24 1023.12 1023.56 1023.16 1023.16 1023.20 1023.16
1015.32 1015.56 1015.92 1016.24 1016.48 1016.68 1016.96 1017.28 1017.72 1018.00 1018.24 1018.28 1018.44 1018.44 1018.48 1018.64 1018.60 1018.52 1018.60 1018.84 1018.88 1018.92 1018.92 1019.00 1019.04 1019.24 1019.40 1019.56 1019.72 1019.76 1019.84 1019.96 1020.12 1020.20 1020.20 1020.32 1020.48 1020.76 1020.88 1020.76 1020.76 1020.88 1021.12 1021.16 1021.40 1021.92 1022.24 1022.16 1022.12 1022.12 1021.96 1021.92 1021.92 1022.28 1023.00 1023.24 1023.12 1024.24 1023.64 1023.44 1023.32 1023.20
1015.08 1015.40 1015.72 1016.04 1016.32 1016.52 1016.92 1017.12 1017.28 1017.36 1017.52 1017.76 1018.16 1018.48 1018.56 1018.60 1018.60 1018.76 1018.76 1018.84 1018.88 1018.96 1019.00 1019.08 1019.24 1019.28 1019.48 1019.64 1019.76 1019.88 1020.00 1020.04 1020.12 1020.20 1020.28 1020.28 1020.44 1020.60 1020.60 1020.60 1020.68 1020.80 1020.88 1021.12 1021.36 1021.80 1022.08 1022.20 1022.28 1022.24 1022.24 1022.32 1022.32 1022.16 1022.12 1022.80 1023.32 1023.32 1023.88 1023.76 1023.68 1023.76
1014.92 1015.16 1015.56 1015.84 1016.16 1016.28 1016.64 1016.92 1017.20 1017.44 1017.60 1017.72 1017.84 1018.28 1018.40 1018.56 1018.64 1018.64 1018.76 1018.96 1018.96 1019.12 1019.16 1019.16 1019.24 1019.32 1019.40 1019.56 1019.80 1019.96 1020.00 1020.08 1020.20 1020.24 1020.24 1020.24 1020.36 1020.44 1020.48 1020.64 1020.80 1020.84 1020.92 1021.00 1021.20 1021.48 1021.88 1021.92 1021.96 1022.48 1022.44 1022.56 1022.56 1022.48 1022.40 1022.40 1022.12 1022.24 1022.68 1023.72 1024.28 1024.00
1014.96 1015.24 1015.64 1015.80 1016.04 1016.28 1016.36 1016.68 1016.92 1017.24 1017.68 1017.80 1017.88 1018.12 1018.24 1018.40 1018.56 1018.64 1018.88 1019.04 1019.08 1019.20 1019.36 1019.48 1019.48 1019.52 1019.52 1019.60 1019.80 1019.96 1020.12 1020.24 1020.32 1020.28 1020.16 1020.16 1020.32 1020.48 1020.72 1020.84 1021.00 1021.12 1021.16 1021.16 1021.16 1021.28 1021.60 1021.72 1021.64 1022.20 1022.52 1022.60 1022.40 1022.40 1022.44 1022.40 1022.44 1022.16 1022.48 1023.28 1023.84 1024.08
1015.24 1015.52 1015.84 1016.12 1016.24 1016.40 1016.56 1016.64 1016.96 1017.16 1017.44 1017.80 1017.92 1018.20 1018.28 1018.60 1018.72 1018.76 1018.96 1019.16 1019.24 1019.32 1019.44 1019.60 1019.72 1019.76 1019.76 1019.80 1019.92 1020.04 1020.12 1020.20 1020.28 1020.24 1020.24 1020.32 1020.52 1020.72 1020.84 1020.92 1021.00 1021.08 1021.12 1021.24 1021.20 1021.24 1021.44 1021.56 1021.60 1021.92 1021.96 1022.16 1022.36 1022.52 1022.40 1022.44 1022.44 1022.48 1022.60 1022.52 1023.28 1023.76
1015.24 1015.64 1016.04 1016.32 1016.44 1016.60 1016.64 1016.64 1016.76 1017.04 1017.28 1017.64 1017.88 1018.04 1018.32 1018.64 1018.76 1018.84 1019.00 1019.24 1019.32 1019.52 1019.60 1019.76 1019.84 1019.92 1019.96 1019.96 1020.08 1020.12 1020.20 1020.32 1020.36 1020.48 1020.60 1020.68 1020.76 1020.80 1021.00 1021.12 1021.24 1021.24 1021.28 1021.32 1021.36 1021.52 1021.64 1021.68 1021.76 1021.92 1021.96 1021.92 1022.08 1022.04 1022.24 1022.48 1022.56 1022.48 1022.52 1022.96 1023.20 1023.64
1016.36 1015.88 1016.24 1016.48 1016.68 1016.68 1016.68 1016.68 1016.72 1016.96 1017.24 1017.44 1017.56 1017.72 1017.92 1018.32 1018.56 1018.80 1019.04 1019.32 1019.48 1019.56 1019.76 1019.88 1020.00 1020.04 1020.20 1020.20 1020.20 1020.28 1020.40 1020.48 1020.60 1020.72 1020.84 1020.84 1020.92 1020.96 1021.08 1021.12 1021.20 1021.28 1021.40 1021.48 1021.52 1021.60 1021.76 1021.96 1021.96 1022.04 1022.12 1022.04 1022.08 1022.08 1022.16 1022.20 1022.32 1022.32 1022.36 1022.56 1022.72 1023.28
1018.64 1018.32 1017.36 1017.00 1017.12 1017.04 1017.00 1016.96 1017.00 1017.12 1017.32 1017.48 1017.56 1017.68 1017.88 1018.24 1018.52 1018.76 1019.04 1019.28 1019.44 1019.60 1019.80 1019.96 1020.12 1020.20 1020.40 1020.44 1020.36 1020.44 1020.48 1020.56 1020.68 1020.84 1020.92 1020.96 1021.08 1021.16 1021.16 1021.16 1021.32 1021.44 1021.52 1021.60 1021.60 1021.68 1021.88 1022.04 1022.04 1022.12 1022.32 1022.32 1022.16 1022.16 1022.36 1022.36 1022.40 1022.44 1022.48 1022.48 1022.64 1023.16
1017.76 1018.84 1019.32 1018.80 1018.32 1018.20 1018.08 1017.96 1017.84 1017.72 1017.76 1017.80 1017.92 1018.04 1018.16 1018.40 1018.72 1018.84 1019.04 1019.28 1019.40 1019.52 1019.72 1019.96 1020.20 1020.36 1020.56 1020.52 1020.56 1020.68 1020.76 1020.84 1020.92 1020.96 1021.04 1021.16 1021.24 1021.32 1021.28 1021.24 1021.40 1021.52 1021.72 1021.84 1021.84 1021.96 1022.12 1022.28 1022.32 1022.40 1022.32 1022.36 1022.40 1022.48 1022.60 1022.56 1022.60 1022.56 1022.68 1022.68 1022.80 1023.08
1016.32 1017.52 1019.16 1019.84 1019.40 1018.80 1018.60 1018.56 1018.44 1018.36 1018.24 1018.00 1018.00 1018.12 1018.36 1018.60 1018.92 1019.16 1019.32 1019.44 1019.60 1019.72 1019.76 1020.04 1020.24 1020.56 1020.68 1020.72 1020.80 1020.88 1021.00 1021.08 1021.20 1021.24 1021.28 1021.36 1021.44 1021.52 1021.52 1021.48 1021.56 1021.80 1021.92 1022.00 1022.08 1022.12 1022.28 1022.36 1022.52 1022.56 1022.52 1022.52 1022.64 1022.68 1022.68 1022.64 1022.56 1022.48 1022.44 1022.52 1022.60 1022.88
1016.68 1017.36 1018.16 1019.44 1019.48 1018.48 1017.80 1017.60 1017.64 1017.76 1018.08 1018.28 1018.44 1018.52 1018.72 1018.96 1019.28 1019.56 1019.88 1019.68 1019.84 1020.00 1020.08 1020.24 1020.44 1020.68 1020.92 1020.92 1021.00 1021.12 1021.20 1021.40 1021.48 1021.56 1021.60 1021.64 1021.72 1021.72 1021.84 1021.80 1021.96 1022.08 1022.28 1022.28 1022.28 1022.36 1022.44 1022.52 1022.64 1022.72 1022.72 1022.76 1022.68 1022.84 1022.84 1022.80 1022.68 1022.76 1022.68 1022.76 1022.80 1022.92
1017.08 1017.44 1017.72 1018.52 1019.04 1018.32 1017.36 1017.08 1017.04 1017.48 1018.20 1018.68 1019.04 1019.32 1019.44 1019.48 1019.52 1019.56 1019.84 1020.16 1019.96 1020.16 1020.32 1020.40 1020.56 1020.80 1021.00 1021.12 1021.24 1021.32 1021.40 1021.60 1021.72 1021.80 1021.88 1021.92 1022.00 1022.04 1022.08 1022.12 1022.24 1022.40 1022.56 1022.64 1022.56 1022.68 1022.72 1022.72 1022.92 1022.92 1022.96 1022.96 1022.96 1023.04 1023.12 1023.12 1023.08 1023.08 1023.12 1023.04 1023.00 1023.00
Wind_Speed
5 9 10 9 8 10 10 12 11 11 11 11 10 11 10 10 9 8 9 8 7 6 5 5 6 6 8 7 7 8 8 8 8 8 8 8 9 9 9 10 9 9 8 7 6 7 6 6 7 7 6 4 6 5 2 2 2 2 2 3 3 3
8 10 10 8 7 7 7 11 9 8 8 9 10 10 9 7 8 7 8 7 5 5 4 4 5 6 5 6 7 8 8 8 8 8 7 7 8 8 8 9 9 9 7 6 4 3 3 4 6 6 5 3 4 3 3 2 2 2 2 2 2 4
10 10 11 9 7 7 9 7 8 8 7 9 9 8 7 8 7 7 7 6 5 4 4 4 4 4 4 5 6 7 8 8 8 8 7 7 7 7 7 8 8 7 7 4 3 3 3 2 3 4 3 1 2 3 2 2 2 1 1 2 1 5
10 10 9 7 7 7 7 6 5 7 7 6 7 6 7 7 6 6 6 5 4 4 4 3 5 8 7 4 4 5 5 7 7 7 6 5 7 6 8 9 8 4 2 2 3 3 3 3 2 2 2 1 2 2 2 3 2 1 1 2 1 4
7 9 9 7 8 8 8 8 7 8 7 7 7 6 6 6 6 6 6 5 5 4 4 4 4 4 4 4 5 4 3 3 3 4 4 3 2 4 3 4 3 2 2 2 3 3 2 3 2 2 2 2 1 2 2 2 2 1 1 1 3 1
6 8 7 7 7 7 7 7 8 7 6 5 5 4 5 4 5 6 6 6 5 5 4 4 5 4 4 4 4 4 3 3 3 3 3 3 2 2 2 3 2 2 2 1 2 3 3 2 1 1 2 2 1 2 3 2 2 2 1 1 4 2
8 8 9 7 7 7 6 6 5 6 7 5 4 5 5 5 5 6 6 5 5 5 5 5 5 5 5 4 4 4 4 3 3 3 2 2 2 2 2 3 2 3 2 1 2 3 3 2 2 1 2 2 1 2 2 2 1 1 1 1 4 3
9 9 8 8 8 7 6 7 5 6 6 6 5 6 5 5 5 6 6 5 4 5 5 5 5 5 5 5 4 4 4 4 4 4 4 3 3 2 2 2 3 3 2 2 2 2 3 3 1 4 1 3 1 2 2 1 1 2 1 1 2 4
9 10 8 8 8 6 7 7 6 6 6 6 6 5 5 5 5 5 5 5 4 3 4 4 5 4 4 4 4 5 4 4 4 3 4 4 3 3 2 2 3 3 3 2 2 3 2 3 2 2 3 4 1 1 1 0 2 2 2 1 0 4
10 9 8 8 6 6 7 6 7 6 6 7 6 6 6 5 5 4 4 2 2 3 4 4 5 4 5 4 4 4 4 4 4 4 3 3 3 2 3 3 3 3 3 2 2 3 2 4 3 1 1 1 4 4 4 2 2 2 1 1 1 2
9 8 8 8 8 7 7 7 7 6 6 6 6 6 6 5 4 4 3 2 4 2 3 3 6 7 5 4 4 4 4 4 4 4 3 3 3 2 2 2 3 4 3 3 3 2 2 3 3 2 2 4 2 3 2 3 1 1 2 2 1 1
8 8 8 7 7 7 8 8 8 7 7 5 6 6 5 5 5 3 2 5 3 3 3 2 6 6 3 4 6 5 4 4 3 3 3 3 3 2 2 2 3 4 4 4 4 3 3 3 3 2 3 5 4 3 1 1 3 1 5 5 4 1
8 8 9 8 7 7 7 7 7 7 6 5 5 5 5 4 3 3 4 5 5 4 4 5 5 6 4 2 2 9 5 3 2 3 3 4 4 2 2 2 4 4 4 4 4 4 4 4 4 4 4 4 3 3 3 3 1 1 5 3 3 2
8 9 9 8 7 6 6 6 5 5 5 5 4 4 3 3 2 4 4 4 4 4 5 6 6 5 5 5 5 5 9 2 2 3 3 4 3 3 2 2 3 4 4 3 4 4 4 5 4 4 4 4 4 3 2 2 1 0 3 3 3 1
8 10 9 8 7 6 6 5 5 5 4 4 3 2 2 1 2 3 4 4 5 6 6 6 7 6 6 4 2 3 8 3 2 3 3 3 3 3 3 2 2 4 4 3 4 6 4 4 5 5 5 3 4 3 4 4 3 1 1 1 1 0
9 9 9 8 7 6 6 6 5 5 4 4 3 3 2 2 2 3 3 4 4 5 6 6 6 5 4 4 5 4 6 4 3 3 3 3 3 3 3 2 3 4 4 2 4 4 3 4 4 5 4 4 3 4 4 4 4 3 3 2 2 1
10 9 8 8 7 6 6 7 6 5 5 5 3 3 3 3 3 3 3 2 3 3 5 6 6 6 4 5 4 4 5 5 3 3 3 3 2 1 2 3 4 4 2 2 3 6 5 4 4 4 4 4 4 5 4 2 3 2 2 3 3 2
7 8 7 7 6 6 6 6 5 5 5 4 3 2 2 2 2 2 2 3 3 3 3 4 5 7 6 5 5 5 5 4 4 4 4 4 3 3 3 4 7 6 3 2 2 4 5 4 4 4 3 3 3 3 1 2 2 1 2 2 3 3
9 7 6 6 6 6 6 4 4 5 5 4 3 2 2 2 2 2 1 2 3 3 3 3 4 5 5 5 4 4 4 4 4 4 4 4 4 4 4 4 8 7 3 3 3 3 4 4 4 3 2 2 2 2 1 2 2 2 2 2 3 2
9 7 6 5 6 5 5 5 4 4 4 4 3 3 2 2 2 2 2 2 3 3 3 4 4 3 3 3 3 3 4 4 4 4 4 4 4 4 5 6 7 11 8 4 2 3 3 4 3 4 3 2 2 2 2 2 2 2 1 3 4 3
8 8 7 7 6 6 6 4 3 3 4 4 4 4 3 2 2 2 3 3 3 3 4 4 4 4 4 3 3 3 4 4 3 3 3 4 5 6 6 7 7 7 9 7 4 3 3 3 5 4 2 2 2 1 2 2 1 1 3 3 3 3
6 8 9 6 5 5 4 4 4 4 4 4 5 4 4 3 2 3 4 4 4 4 3 4 4 5 4 4 4 4 4 3 2 3 4 4 5 6 7 7 7 7 5 6 5 5 4 5 3 3 3 3 2 2 1 1 0 3 4 4 3 3
7 7 6 5 6 5 3 2 2 3 4 4 3 2 3 3 3 4 3 4 5 5 4 3 4 5 5 4 4 4 4 4 3 4 4 4 5 5 5 6 6 7 7 4 4 4 4 3 2 3 2 3 3 3 2 3 4 5 4 4 3 4
7 7 6 6 5 4 5 5 5 4 4 2 4 4 4 4 5 5 5 3 4 5 6 5 5 5 4 5 5 5 5 4 4 4 4 4 4 4 4 4 4 5 7 6 4 4 1 1 2 4 4 1 1 1 5 4 4 5 4 5 5 4
8 8 7 7 7 7 7 6 6 5 5 6 5 5 5 4 3 4 5 4 3 3 5 6 5 5 5 5 5 5 5 5 5 4 4 4 4 4 4 4 4 5 5 5 5 3 3 2 2 2 3 4 2 3 2 5 4 5 4 6 7 6
7 7 8 9 9 8 7 8 7 7 6 4 5 4 4 5 4 3 4 2 4 3 3 4 5 5 5 6 5 5 5 5 5 4 3 4 4 5 5 5 6 5 6 5 5 5 4 3 2 2 2 3 2 1 5 2 2 5 2 4 5 7
9 8 8 9 10 8 8 8 9 8 7 7 6 3 2 3 4 3 3 4 3 3 3 3 4 5 6 6 6 5 5 5 5 4 4 4 4 5 5 5 4 4 4 4 5 4 5 5 4 3 1 1 1 1 3 4 3 7 7 5 7 7
8 9 8 8 10 9 9 8 7 6 5 5 5 6 5 4 4 4 5 4 3 3 3 3 3 4 5 6 5 5 4 4 4 3 3 3 4 4 4 4 4 3 3 3 4 3 5 5 5 5 3 3 4 3 2 1 2 3 6 7 7 8
9 8 7 10 9 9 7 8 7 7 6 4 6 6 5 4 4 4 6 4 4 3 3 3 3 3 3 4 4 4 4 4 3 3 2 3 4 4 5 5 5 4 4 3 3 3 5 5 4 6 6 3 3 4 4 2 2 3 6 7 7 8
9 6 6 8 7 8 7 7 6 6 8 7 6 6 5 6 5 4 6 5 4 3 3 3 3 3 3 4 4 4 4 4 4 3 2 2 4 4 4 4 4 4 4 4 3 3 3 4 3 5 4 4 4 4 5 5 4 5 3 3 7 8
9 7 7 7 8 9 8 8 7 8 8 8 7 7 7 5 5 5 5 4 4 3 3 3 2 3 3 3 3 3 3 4 3 2 2 2 3 3 4 3 3 4 4 4 3 4 4 4 3 5 5 5 5 4 4 5 5 3 4 6 8 8
2 8 7 7 7 8 7 7 7 8 8 7 7 6 6 6 5 6 5 5 3 3 3 3 2 3 3 3 3 3 4 4 4 3 3 2 2 3 3 3 3 3 4 4 5 5 5 5 5 4 3 2 3 3 4 4 3 3 4 6 7 9
17 15 1 4 6 6 6 6 6 7 6 5 5 5 5 5 4 5 4 4 4 4 3 3 2 3 3 3 2 3 3 3 3 3 3 4 3 3 3 3 4 5 5 5 5 6 5 5 5 6 5 3 4 4 4 3 3 3 3 4 7 8
3 7 14 8 5 6 8 7 6 5 4 4 4 3 3 4 4 4 3 4 3 3 3 3 3 3 3 3 3 3 3 4 3 4 3 4 4 3 3 4 4 5 5 4 4 6 6 5 5 5 4 5 5 5 4 3 4 3 4 5 7 8
10 7 7 10 8 10 9 10 7 4 2 3 4 4 4 3 3 4 3 3 3 2 3 3 3 3 3 3 3 3 3 4 3 3 3 4 3 3 3 4 4 5 4 4 5 5 5 6 5 5 5 5 5 5 4 4 3 4 3 3 6 8
9 11 11 6 3 7 9 9 8 6 4 3 4 4 4 5 4 4 3 2 3 2 2 3 3 3 4 3 3 3 4 5 4 4 4 4 3 3 3 4 4 4 5 2 4 6 5 5 5 6 6 5 6 6 4 4 4 4 5 5 4 2
12 12 13 9 9 9 9 10 8 9 7 7 6 6 4 5 4 4 2 1 2 3 3 2 3 3 4 3 3 3 4 5 4 4 4 4 4 4 3 4 4 5 5 3 3 4 3 5 5 5 5 5 6 5 5 4 4 4 4 4 4 3
Wind_Direction
168 157 155 152 158 162 157 155 148 142 135 129 128 133 132 130 134 135 140 129 128 135 135 134 139 126 129 126 117 122 121 119 117 116 113 105 103 105 106 103 101 97 90 80 75 77 59 37 44 43 36 28 155 189 168 166 163 148 157 134 159 123
168 163 153 155 161 160 160 165 154 149 148 148 146 144 146 151 155 154 139 144 147 140 145 142 135 130 130 134 136 131 128 124 121 120 114 111 107 107 107 108 107 102 98 89 84 81 79 68 55 49 52 29 206 182 161 170 183 159 143 143 161 98
165 163 162 162 160 161 160 150 154 158 162 163 161 157 158 160 163 163 165 160 151 147 150 142 140 140 131 119 123 135 132 130 129 124 124 120 116 113 118 115 104 96 100 128 110 78 70 63 79 97 106 134 180 183 153 153 178 180 170 101 182 83
163 161 158 158 159 155 157 148 156 171 168 162 161 165 167 163 166 165 163 164 145 150 152 138 135 132 132 131 124 128 124 129 133 128 126 139 130 117 103 92 87 88 134 89 82 88 84 75 52 45 53 95 160 146 178 174 186 175 188 138 129 92
162 159 156 159 165 161 160 163 165 175 170 166 168 173 168 169 168 166 167 167 161 159 154 161 156 152 152 153 153 146 142 153 139 127 135 119 129 123 141 126 116 105 78 75 78 84 88 95 62 41 42 45 132 166 183 181 181 188 168 141 117 108
162 159 162 164 165 157 158 169 170 172 163 162 164 172 164 159 170 172 176 180 163 164 163 164 162 166 155 156 156 145 152 147 146 137 149 129 127 129 136 123 120 105 89 67 80 77 84 84 78 60 29 52 124 169 191 183 169 182 160 150 129 154
169 165 166 164 162 155 167 174 168 164 169 163 162 172 176 177 176 181 186 181 177 174 173 170 170 165 159 161 163 159 157 164 158 149 138 145 124 142 140 134 128 111 105 110 97 101 113 103 31 60 5 32 98 163 192 199 180 155 131 132 122 146
174 167 161 161 160 159 166 171 161 168 173 175 177 185 182 188 187 191 195 190 189 183 181 185 181 172 165 173 174 169 163 167 172 156 153 154 148 155 137 129 131 127 121 99 101 101 117 130 109 98 337 322 106 165 193 213 82 54 48 75 128 145
173 166 158 162 166 161 168 174 175 178 181 177 188 198 198 195 201 197 198 198 203 196 192 194 187 172 169 183 177 176 179 186 182 168 162 157 160 145 144 133 121 114 112 87 93 89 114 120 123 145 149 248 133 129 182 142 68 68 51 36 212 102
177 163 158 165 166 165 172 179 183 185 185 191 197 202 206 207 210 204 196 215 314 236 208 201 194 173 189 203 192 195 196 194 180 167 172 164 155 156 143 137 127 112 96 79 62 76 116 119 117 99 91 84 55 31 13 22 69 75 77 85 83 115
172 161 166 174 173 172 176 185 192 192 195 199 196 197 210 213 211 207 61 78 219 316 11 27 39 5 321 252 215 208 210 198 186 174 176 167 166 163 149 131 124 113 101 79 71 70 81 91 86 55 59 95 66 65 35 50 1 96 125 83 43 69
167 168 178 176 172 172 180 188 191 196 201 195 193 206 212 215 210 108 147 213 212 201 137 124 129 169 175 308 313 272 206 200 194 176 178 169 163 165 151 115 100 92 88 100 104 97 92 96 93 93 87 91 99 121 260 132 236 158 53 16 360 18
171 176 185 180 178 180 182 187 188 198 199 197 202 208 217 214 184 114 210 201 183 178 160 170 161 173 187 187 266 280 256 209 187 177 174 170 161 156 152 136 110 106 107 110 118 119 108 89 80 68 68 64 78 82 121 140 202 135 125 141 253 302
180 186 192 186 183 184 186 190 194 192 196 198 203 209 223 214 176 149 212 195 168 189 194 193 166 166 176 178 189 260 285 232 186 168 158 153 164 170 149 137 118 113 101 129 133 123 110 88 83 77 66 68 66 67 68 93 97 85 116 159 183 214
191 192 193 192 193 191 186 189 186 186 186 184 175 190 190 177 148 144 192 207 194 194 194 196 185 178 167 175 174 222 267 247 195 169 156 164 182 165 159 147 137 114 131 150 96 66 70 98 105 96 87 77 86 85 77 73 78 60 41 70 236 314
191 192 193 195 197 194 188 186 178 168 162 163 161 172 177 191 188 175 197 213 207 189 175 173 182 160 168 197 208 203 247 240 196 174 160 160 193 174 152 143 115 126 152 131 109 108 94 88 76 77 75 79 83 82 83 86 79 72 69 74 60 354
198 193 191 194 196 190 174 173 165 157 154 152 157 156 153 153 149 150 156 176 193 201 176 169 161 169 170 202 205 203 229 223 181 158 153 161 182 161 148 126 114 82 117 173 157 134 127 116 99 84 81 71 56 53 47 64 81 59 78 84 75 53
224 199 185 182 185 173 169 160 154 148 142 131 127 134 127 135 128 132 151 156 170 185 180 194 192 159 180 195 197 205 207 174 162 148 145 157 162 152 149 128 113 109 162 175 142 133 136 135 125 111 84 64 61 59 38 42 40 74 45 53 76 57
236 197 178 174 165 149 137 118 120 133 123 116 114 103 106 110 108 116 143 159 157 152 154 176 186 189 182 174 177 178 162 156 149 141 138 145 144 134 125 139 123 129 179 201 160 143 140 144 144 134 123 86 75 82 64 52 43 26 27 26 28 44
213 195 172 161 163 156 156 164 144 130 124 112 114 111 110 105 115 116 122 145 154 142 144 158 167 169 160 148 159 153 150 156 146 142 138 142 140 142 146 142 125 133 142 150 158 154 137 137 125 125 115 99 107 118 110 79 63 50 47 29 24 8
187 184 176 174 176 173 172 146 142 165 138 134 133 136 131 122 115 102 116 123 133 133 144 152 161 162 157 149 139 135 143 146 139 132 130 123 131 132 137 136 127 126 132 138 139 146 151 158 154 143 159 158 133 51 66 71 86 61 50 40 9 3
166 181 188 174 160 169 176 175 169 170 149 139 147 152 134 126 109 107 116 122 123 123 133 143 149 151 156 153 146 143 146 130 138 115 97 111 118 127 135 138 135 119 135 152 146 160 166 176 173 178 164 166 135 90 56 56 87 53 40 41 21 2
175 172 178 173 163 171 161 123 169 137 141 112 52 63 102 104 118 113 111 116 117 125 130 130 138 139 141 150 150 144 135 131 140 115 118 118 128 133 142 144 149 136 135 130 133 152 163 228 171 153 111 165 147 163 149 138 102 54 45 38 21 16
174 171 165 171 164 124 108 90 75 94 86 104 130 119 107 124 123 123 111 109 113 118 120 118 126 131 129 128 130 128 131 131 118 115 121 132 140 147 164 156 147 146 136 134 160 158 156 114 188 166 171 238 96 200 145 94 71 52 50 61 45 28
175 168 165 165 156 137 123 107 100 95 106 105 121 139 133 104 100 113 119 107 94 121 123 119 119 120 120 123 124 125 124 121 122 126 136 137 145 160 169 164 159 152 171 171 162 151 164 173 131 263 163 148 145 196 97 114 115 67 51 72 59 56
170 163 166 167 157 154 151 141 146 150 156 152 147 155 148 132 130 108 89 94 100 84 103 112 115 116 121 127 127 127 125 126 128 139 146 145 154 157 178 187 186 190 184 185 165 155 155 168 136 147 298 338 344 92 146 126 201 110 78 81 70 61
171 167 165 163 164 158 154 161 170 170 165 162 148 107 86 95 113 112 102 83 70 60 65 108 113 122 126 127 130 131 132 132 132 136 143 158 156 162 166 168 167 185 164 148 156 163 161 160 145 126 150 10 3 11 131 162 147 139 131 96 62 62
168 165 166 161 168 171 163 168 163 153 145 145 141 139 137 120 114 120 108 97 94 76 53 57 95 111 125 129 127 126 127 126 129 131 156 159 156 151 149 147 168 177 158 169 172 169 167 176 175 136 132 140 131 102 88 54 148 191 143 132 104 82
162 161 164 167 167 176 169 164 163 149 134 130 129 130 128 122 116 111 101 91 83 81 70 51 58 97 107 117 129 135 136 139 143 148 164 135 134 141 153 159 169 176 179 174 185 157 164 169 161 142 147 144 145 130 123 93 108 153 138 129 116 115
161 161 156 166 171 167 169 158 154 152 138 138 130 125 130 127 121 125 106 100 97 88 79 75 71 75 96 107 119 137 150 147 151 145 146 108 133 144 154 167 177 187 181 172 169 157 143 147 144 149 163 143 135 126 125 121 109 110 92 131 143 142
157 144 153 171 174 170 172 166 157 154 141 132 132 132 134 126 126 123 112 104 99 93 79 77 70 71 71 95 109 114 116 122 125 122 120 137 155 148 152 153 156 159 163 161 146 130 127 123 128 145 156 153 148 151 142 145 147 150 147 135 133 132
67 150 162 176 183 175 172 164 145 143 139 140 144 148 145 136 133 121 114 110 104 102 90 85 80 88 76 76 96 100 102 106 107 116 114 108 109 123 126 130 133 135 121 119 123 125 119 121 124 125 130 127 120 116 120 131 132 145 151 148 146 139
348 339 296 168 193 182 166 147 138 135 124 129 133 135 133 122 119 119 116 117 120 109 110 110 95 92 76 66 72 90 94 94 100 98 110 113 109 111 118 119 116 117 122 127 128 129 128 128 131 129 124 113 120 116 107 98 122 123 100 116 134 134
116 341 337 342 2 24 32 37 49 61 94 116 116 111 109 120 112 108 117 118 119 120 122 114 111 80 69 70 68 59 71 79 81 98 102 103 110 113 118 117 117 111 106 98 110 109 112 112 99 106 125 124 110 107 106 108 111 121 127 141 142 139
142 113 44 1 24 56 64 58 53 49 56 127 137 130 121 103 108 109 100 104 99 104 114 105 93 86 73 69 74 79 73 85 82 83 89 95 92 94 86 96 96 94 96 108 114 114 116 122 120 124 115 117 117 115 115 118 113 96 104 114 137 143
101 87 92 89 100 124 128 128 135 145 149 120 93 99 91 84 78 51 24 91 107 86 74 90 88 92 69 66 72 85 85 71 65 62 60 67 72 85 78 92 98 97 100 85 114 114 120 119 119 121 119 122 119 112 113 108 98 83 75 74 94 140
102 107 118 145 177 192 163 152 154 111 99 87 81 71 74 93 95 98 103 36 104 97 93 95 94 91 92 80 73 68 81 83 74 73 73 68 67 68 61 70 78 82 85 72 85 94 96 112 113 120 121 121 112 115 104 90 85 87 84 76 74 69